Stations météo

Publicité
Le Havre/Octeville, France (7046): Température de l'air & dewpoint: 20.06.2017 07:00:00 - 26.06.2017 07:00:00 (CEST)Le Havre/Octeville, France (7046): Vitesse du vent & gusts: 20.06.2017 07:00:00 - 26.06.2017 07:00:00 (CEST)Le Havre/Octeville, France (7046): Direction du vent: 20.06.2017 07:00:00 - 26.06.2017 07:00:00 (CEST)Le Havre/Octeville, France (7046): reduced air pressure: 20.06.2017 07:00:00 - 26.06.2017 07:00:00 (CEST)Le Havre/Octeville, France (7046): visibility: 20.06.2017 07:00:00 - 26.06.2017 07:00:00 (CEST)Le Havre/Octeville, France (7046): Quantités de précipitations: 20.06.2017 07:00:00 - 26.06.2017 07:00:00 (CEST)
Date & Time tt [°C] td [°C] ff [km/h] ff [knt] fx [km/h] fx [knt] dd ppp [hPa] vv [km] rr [mm]
26.06.2017 07:00:00 15,1 13,8 6 3 11 6 WNW 1015,0 20 0,0
26.06.2017 06:00:00 15,1 13,8 9 5 13 7 W 1015,1 20 0,0
26.06.2017 05:00:00 15,1 13,5 10 5 16 9 W 1015,0 20 0,0
26.06.2017 04:00:00 15,0 13,4 10 5 19 10 WSW 1015,2 56 0,0
26.06.2017 03:00:00 14,8 13,2 12 6 24 13 W 1015,5 19 0,0
26.06.2017 02:00:00 15,4 13,4 16 9 30 16 W 1015,8 58 0,0
26.06.2017 01:00:00 15,6 13,4 19 10 31 17 W 1016,1 59 0,0
26.06.2017 00:00:00 15,7 14,6 19 11 32 18 WNW 1016,4 38 0,0
25.06.2017 23:00:00 16,2 15,6 14 8 21 11 WNW 1016,4 16 0,0
25.06.2017 22:00:00 16,2 14,9 10 6 31 17 WNW 1016,1 16 0,0
25.06.2017 21:00:00 18,0 15,3 22 12 34 18 W 1015,9 60 0,0
25.06.2017 20:00:00 19,2 15,5 18 10 30 16 WSW 1015,8 60 0,0
25.06.2017 19:00:00 19,0 15,5 24 13 37 20 W 1016,1 38 0,0
25.06.2017 18:00:00 19,1 15,8 22 12 34 18 WSW 1016,0 31 0,0
25.06.2017 17:00:00 19,0 15,5 21 11 37 20 W 1016,3 60 0,0
25.06.2017 16:00:00 19,8 15,6 19 10 29 16 W 1016,5 20 0,0
25.06.2017 15:00:00 19,0 14,9 16 9 23 12 W 1016,9 54 0,0
25.06.2017 14:00:00 19,0 14,3 14 8 23 12 W 1017,1 20 0,0
25.06.2017 13:00:00 18,1 13,2 19 10 30 16 WSW 1017,1 60 0,0
25.06.2017 12:00:00 17,1 12,8 21 12 33 18 WSW 1017,3 20 0,0
25.06.2017 11:00:00 16,6 12,5 23 13 36 20 WSW 1017,2 20 0,0
25.06.2017 10:00:00 16,3 13,0 24 13 36 20 WSW 1017,0 41 0,0
25.06.2017 09:00:00 16,1 13,4 24 13 42 23 WSW 1016,7 46 0,0
25.06.2017 08:00:00 15,5 13,3 26 14 44 24 WSW 1016,4 45 0,0
25.06.2017 07:00:00 15,5 13,3 25 13 46 25 WSW 1016,1 54 0,0
25.06.2017 06:00:00 15,2 12,1 27 15 45 25 WSW 1016,0 58 0,0
25.06.2017 05:00:00 14,9 13,9 26 14 50 27 W 1016,0 20 0,0
25.06.2017 04:00:00 15,6 14,6 30 16 44 24 WSW 1015,9 42 0,0
25.06.2017 03:00:00 15,9 15,4 29 15 50 27 WSW 1016,1 7 0,2
25.06.2017 02:00:00 16,0 15,5 26 14 42 23 WSW 1016,5 4,1 0,0
25.06.2017 01:00:00 17,0 16,2 20 11 34 19 SW 1016,4 19 0,0
25.06.2017 00:00:00 17,0 16,2 18 10 30 16 SW 1016,7 19 0,2
24.06.2017 23:00:00 16,7 15,9 17 9 28 15 SW 1017,0 4,1 0,6
24.06.2017 22:00:00 17,2 15,2 17 9 30 16 WSW 1016,6 15 0,0
24.06.2017 21:00:00 17,4 14,9 12 7 24 13 WNW 1016,4 40 0,0
24.06.2017 20:00:00 18,5 14,6 12 7 21 12 WNW 1016,4 53 0,0
24.06.2017 19:00:00 18,7 14,4 13 7 19 10 WNW 1016,6 54 0,0
24.06.2017 18:00:00 19,1 14,6 12 7 18 10 WNW 1016,9 50 0,0
24.06.2017 17:00:00 18,4 14,3 11 6 24 13 WNW 1017,5 56 0,0
24.06.2017 16:00:00 18,9 14,6 17 9 28 15 W 1018,1 33 0,0
24.06.2017 15:00:00 18,9 15,2 19 10 28 15 WSW 1018,5 29 0,0
24.06.2017 14:00:00 18,4 14,5 19 10 28 15 SW 1018,6 50 0,0
24.06.2017 13:00:00 17,9 13,6 23 13 33 18 SW 1018,7 45 0,0
24.06.2017 12:00:00 17,5 13,2 16 9 35 19 SSW 1019,0 60 0,0
24.06.2017 11:00:00 17,4 13,1 21 11 32 18 SW 1019,1 36 0,0
24.06.2017 10:00:00 16,8 13,7 21 11 44 24 SW 1019,4 52 0,0
24.06.2017 09:00:00 16,0 13,7 22 12 35 19 SW 1019,3 19 0,0
24.06.2017 08:00:00 15,9 13,9 26 14 39 21 SW 1018,9 20 0,0
24.06.2017 07:00:00 15,5 13,9 21 12 42 23 SW 1018,9 29 0,0
24.06.2017 06:00:00 15,3 13,8 26 14 40 22 SW 1019,0 33 0,0
24.06.2017 05:00:00 15,4 14,4 22 12 34 18 SW 1019,3 20 0,0
24.06.2017 04:00:00 15,7 14,4 23 13 40 21 WSW 1019,7 27 0,0
24.06.2017 03:00:00 15,7 13,9 27 14 38 21 SW 1020,0 37 0,0
24.06.2017 02:00:00 15,9 12,6 21 11 34 18 SW 1020,3 60 0,0
24.06.2017 01:00:00 16,2 12,4 20 11 28 15 SW 1020,5 20 0,0
24.06.2017 00:00:00 16,2 12,6 19 11 28 15 SW 1020,7 60 0,0
23.06.2017 23:00:00 16,6 12,9 19 10 28 15 WSW 1020,9 60 0,0
23.06.2017 22:00:00 16,5 12,5 15 8 31 17 WSW 1020,9 60 0,0
23.06.2017 21:00:00 17,4 12,7 19 10 31 17 WSW 1020,9 58 0,0
23.06.2017 20:00:00 17,7 13,2 19 10 33 18 WSW 1021,0 59 0,0
23.06.2017 19:00:00 18,0 12,9 18 10 29 15 WSW 1021,0 52 0,0
23.06.2017 18:00:00 18,4 12,4 22 12 31 17 WSW 1020,9 57 0,0
23.06.2017 17:00:00 18,4 13,0 19 11 28 15 WSW 1021,1 39 0,0
23.06.2017 16:00:00 17,7 12,8 19 10 26 14 SW 1021,1 48 0,0
23.06.2017 15:00:00 17,5 12,2 16 9 24 13 WSW 1021,5 49 0,0
23.06.2017 14:00:00 16,7 12,2 18 10 28 15 W 1021,7 58 0,0
23.06.2017 13:00:00 16,0 12,2 19 10 33 18 W 1021,8 13 0,0
23.06.2017 12:00:00 15,7 11,5 22 12 34 19 W 1021,5 20 0,0
23.06.2017 11:00:00 15,3 11,3 23 12 34 19 W 1021,1 15 0,0
23.06.2017 10:00:00 15,1 11,7 22 12 37 20 W 1020,7 33 0,0
23.06.2017 09:00:00 14,8 11,6 22 12 40 22 W 1020,1 44 0,0
23.06.2017 08:00:00 15,3 12,2 26 14 40 21 W 1019,5 36 0,0
23.06.2017 07:00:00 15,7 12,8 21 11 37 20 W 1018,7 36 0,0
23.06.2017 06:00:00 15,8 13,6 24 13 40 22 W 1018,4 20 0,0
23.06.2017 05:00:00 15,9 14,3 23 13 40 22 W 1018,0 30 0,0
23.06.2017 04:00:00 15,8 14,3 24 13 38 20 WSW 1017,9 20 0,0
23.06.2017 03:00:00 16,1 14,1 22 12 37 20 WSW 1017,9 37 0,0
23.06.2017 02:00:00 16,4 13,9 23 13 36 20 W 1017,8 46 0,0
23.06.2017 01:00:00 16,7 13,0 22 12 37 20 W 1017,7 60 0,0
23.06.2017 00:00:00 16,5 12,6 22 12 35 19 W 1017,3 20 0,0
22.06.2017 23:00:00 16,5 12,5 24 13 37 20 W 1017,2 60 0,0
22.06.2017 22:00:00 16,6 13,1 26 14 39 21 W 1016,8 51 0,0
22.06.2017 21:00:00 17,4 13,5 22 12 37 20 W 1016,7 58 0,0
22.06.2017 20:00:00 17,8 13,5 23 13 37 20 WNW 1016,6 60 0,0
22.06.2017 19:00:00 18,7 13,1 22 12 34 18 WNW 1016,5 24 0,0
22.06.2017 18:00:00 19,6 13,8 19 10 31 17 WNW 1016,2 21 0,0
22.06.2017 17:00:00 19,5 15,4 17 9 29 15 WNW 1016,0 17 0,0
22.06.2017 16:00:00 19,8 15,9 19 11 30 16 WSW 1015,8 16 0,0
22.06.2017 15:00:00 18,4 16,2 25 13 39 21 W 1016,2 15 0,0
22.06.2017 14:00:00 18,3 15,9 26 14 44 24 W 1016,1 16 0,0
22.06.2017 13:00:00 18,4 16,2 29 16 38 21 W 1015,9 11 0,0
22.06.2017 12:00:00 17,4 16,9 22 12 34 19 WSW 1015,4 4,8 0,0
22.06.2017 11:00:00 17,2 16,9 24 13 33 18 WSW 1015,3 6 0,0
22.06.2017 10:00:00 16,4 16,2 20 11 35 19 W 1015,1 1,1 0,0
22.06.2017 09:00:00 16,5 16,3 22 12 31 17 W 1014,8 4,3 0,0
22.06.2017 08:00:00 16,5 16,3 12 6 18 10 W 1014,3 0,1 0,0
22.06.2017 07:00:00 16,5 16,2 8 4 22 12 W 1014,2 0,1 0,0
22.06.2017 06:00:00 17,9 17,6 11 6 29 15 W 1014,0 1,9 0,0
22.06.2017 05:00:00 18,6 17,6 11 6 17 9 NW 1013,6 3,9 0,0
22.06.2017 04:00:00 19,8 18,8 10 5 16 8 W 1013,5 2,6 0,0
22.06.2017 03:00:00 19,5 17,3 5 3 9 5 W 1013,8 8 0,0
22.06.2017 02:00:00 19,5 17,8 2 1 3 2 ENE 1013,9 8 0,0
22.06.2017 01:00:00 20,7 18,5 2 1 5 3 ENE 1014,2 8 0,0
22.06.2017 00:00:00 20,7 18,5 4 2 8 4 N 1014,2 7 0,0
21.06.2017 23:00:00 21,6 17,0 6 3 9 5 NNW 1014,0 20 0,0
21.06.2017 22:00:00 24,1 16,6 3 1 11 6 N 1013,7 37 0,0
21.06.2017 21:00:00 26,6 16,2 10 5 21 12 NW 1013,5 48 0,0
21.06.2017 20:00:00 29,3 15,4 14 7 21 11 N 1013,1 49 0,0
21.06.2017 19:00:00 29,6 16,4 16 8 21 11 NNW 1012,9 60 0,0
21.06.2017 18:00:00 30,4 18,5 16 8 20 11 NNW 1012,6 60 0,0
21.06.2017 17:00:00 31,2 17,5 16 8 21 12 NW 1012,8 20 0,0
21.06.2017 16:00:00 31,3 17,6 14 8 19 11 NW 1013,1 60 0,0
21.06.2017 15:00:00 30,5 17,6 11 6 16 9 WNW 1013,3 60 0,0
21.06.2017 14:00:00 30,6 17,7 9 5 16 8 W 1013,9 60 0,0
21.06.2017 13:00:00 30,8 17,8 8 5 16 9 SSW 1014,0 55 0,0
21.06.2017 12:00:00 30,7 18,4 6 4 20 11 S 1014,1 54 0,0
21.06.2017 11:00:00 29,1 17,0 14 7 24 13 SE 1014,1 20 0,0
21.06.2017 10:00:00 27,4 16,4 16 9 30 16 ESE 1013,9 47 0,0
21.06.2017 09:00:00 25,8 15,8 19 10 32 17 ESE 1013,9 20 0,0
21.06.2017 08:00:00 24,9 16,1 15 8 25 14 E 1013,8 58 0,0
21.06.2017 07:00:00 23,6 16,1 13 7 22 12 E 1014,1 26 0,0
21.06.2017 06:00:00 22,6 15,7 13 7 19 11 E 1014,2 33 0,0
21.06.2017 05:00:00 23,5 15,3 13 7 22 12 E 1014,1 43 0,0
21.06.2017 04:00:00 24,3 15,2 13 7 18 10 E 1014,4 41 0,0
21.06.2017 03:00:00 23,4 16,4 13 7 19 10 E 1014,8 34 0,0
21.06.2017 02:00:00 22,8 16,8 11 6 15 8 E 1015,4 34 0,0
21.06.2017 01:00:00 22,9 17,1 11 6 16 9 E 1015,4 28 0,0
21.06.2017 00:00:00 23,0 17,2 12 6 22 12 E 1015,4 25 0,0
20.06.2017 23:00:00 23,5 17,0 14 8 23 12 ENE 1015,7 27 0,0
20.06.2017 22:00:00 24,7 16,9 16 9 25 14 ENE 1015,2 29 0,0
20.06.2017 21:00:00 26,4 16,9 16 9 27 14 ENE 1015,2 40 0,0
20.06.2017 20:00:00 28,6 17,5 19 10 31 17 NE 1014,9 44 0,0
20.06.2017 19:00:00 29,9 17,7 23 12 29 16 NE 1014,8 60 0,0
20.06.2017 18:00:00 30,5 17,6 19 11 29 16 NE 1015,2 60 0,0
20.06.2017 17:00:00 31,3 17,6 23 12 31 17 NNE 1015,3 60 0,0
20.06.2017 16:00:00 31,9 17,4 19 11 28 15 NNE 1015,5 60 0,0
20.06.2017 15:00:00 32,2 14,8 11 6 23 12 NE 1015,7 60 0,0
20.06.2017 14:00:00 31,7 13,9 5 3 19 11 E 1015,8 60 0,0
20.06.2017 13:00:00 30,7 14,3 12 6 20 11 E 1016,1 60 0,0
20.06.2017 12:00:00 29,9 15,2 11 6 17 9 E 1016,3 60 0,0
20.06.2017 11:00:00 28,1 15,7 11 6 15 8 E 1016,4 20 0,0
20.06.2017 10:00:00 26,5 16,4 10 6 15 8 E 1016,4 19 0,0
20.06.2017 09:00:00 24,2 16,7 11 6 15 8 E 1016,4 30 0,0
20.06.2017 08:00:00 21,0 16,2 10 6 13 7 E 1016,4 20 0,0
20.06.2017 07:00:00 20,1 15,5 8 5 13 7 E 1016,0 20 0,0

tt = Température de l'air
td = dewpoint
ff = Vitesse du vent
fx = gusts
dd = Direction du vent
ppp = reduced air pressure
vv = visibility
rr = Quantités de précipitations

stations d'obs. à proximité